Tracking 35274 objects as of 10-Sep-2026
HD Live streaming from Space Station
objects crossing your sky now

ANTARES R/B


ANTARES R/B is no longer on orbit


NORAD ID: 57489
Int'l Code: 2023-110B
Launch date: August 2, 2023
Source: United States (US)
Launch site: WALLOPS ISLAND (WLPIS)
Decay date: 2023-08-05

Note: This is a ROCKET BODY
Your satellite tracking list
Your tracking list is empty




NASA's NSSDC Master Catalog

Two Line Element Set (TLE):
1 57489U 23110B   23217.75992868  .96873699  12993-4  19134-3 0  9995
2 57489  51.5957  81.3533 0004775 171.0502 232.7854 16.62647252   607
Source of the keplerian elements: AFSPC